User: anonymous   Login
Location: Caltech
(34.1382°N, 118.1253°W)
Time: 00:49:43
(UTC-07:00)
Language:

PAYLOAD A - Orbit

View from above orbital plane
View from above orbital plane
View from above satellite
View from above satellite

Ground track
Ground track

The orbit data is extracted from the following two-line orbital elements,

1 27840U 03031A   15245.91789508 -.00000012 +00000-0 +99255-5 0  9991
2 27840 098.2059 261.0409 0097119 288.7490 132.7778 14.38819716639273
Epoch (UTC): 02 September 2015 22:01:46
Eccentricity: 0.0097119
inclination: 98.2059°
perigee height: 693 km
apogee height: 832 km
right ascension of ascending node: 261.0409°
argument of perigee: 288.7490°
revolutions per day: 14.38819716
mean anomaly at epoch: 132.7778°
orbit number at epoch: 63927

The dashed part of the orbit path shows where the satellite is in the earth's shadow,  

DLR